Location: Lake Arresoe
(56.0000°N, 12.5000°E)
Time: 22:18:26
(UTC+02:00)

Okean 3 - Pass Details

Date: 23 August 2020
Orbit: 576 x 601 km, 82.5° (Epoch: 01 October)

Event Time Altitude Azimuth Distance (km) Brightness Sun altitude
Rises 21:47:45 0° 346° (NNW) 2,866 7.9 -10.7°
Reaches altitude 10° 21:49:58 10° 345° (NNW) 1,959 7.0 -10.9°
Maximum altitude 21:54:18 77° 261° (W) 626 3.7 -11.4°
Drops below altitude 10° 21:58:36 10° 175° (S) 1,942 5.7 -11.8°
Enters shadow 21:58:54 - 175° (S) 2,066 5.8 -11.8°
